Weather History for Southeast Shoal, ON

Change the Weather History Date:

Tuesday, November 6, 2012

  Actual Average Record
Temperature  
Mean Temperature 40 °F -  
Max Temperature 43 °F - - ()
Min Temperature 37 °F - - ()
Degree Days  
Heating Degree Days 25    
Moisture  
Dew Point 30 °F    
Average Humidity 65    
Maximum Humidity 71    
Minimum Humidity 48    
Precipitation  
Precipitation 0.00 in - - ()
Sea Level Pressure  
Sea Level Pressure 30.08 in    
Wind  
Wind Speed - ()    
Max Wind Speed -    
Max Gust Speed -    
T = Trace of Precipitation, MM = Missing Value Source: Averaged Metar Reports

Daily Weather History Graph

Daily Weather History Graph

Search for Another Location

Airport:

Trip Planner

Search our weather history database for the weather conditions in past years. The results will help you decide how hot, cold, wet, or windy it might be!

Date:

Astronomy

Nov. 06, 2012 Rise Set
Actual Time 7:08 AM EST 5:17 PM EST
Civil Twilight 6:39 AM EST 5:46 PM EST
Nautical Twilight 6:06 AM EST 6:20 PM EST
Astronomical Twilight 5:33 AM EST 6:52 PM EST
Moon 11:56 PM EST (11/6) 12:59 PM EST (11/6)
Length of Visible Light 11h 07m
Length of Day
10h 08m
Waning Gibbous, 53% of the Moon is Illuminated
Nov 6
Waning Gibbous
Nov 6
Last Quarter
Nov 13
New
Nov 20
First Quarter
Nov 28
Full

Hourly Weather History & Observations

Time (EST) Temp. Dew Point Humidity Pressure Visibility Wind Dir Wind Speed Gust Speed Precip Events Conditions
12:00 AM 39.6 °F 27.9 °F 63% 30.18 in - North - - N/A   Unknown
1:00 AM 40 °F 27 °F 48% 30.17 in - Calm Calm - -  
1:00 AM 39.6 °F 27.0 °F 61% 30.17 in - North - - N/A   Unknown
2:00 AM 39.6 °F 28.0 °F 63% 30.16 in - North - - N/A   Unknown
3:00 AM 39.9 °F 28.6 °F 64% 30.15 in - North - - N/A   Unknown
4:00 AM 40.5 °F 31.3 °F 70% 30.13 in - North - - N/A   Unknown
5:00 AM 39.9 °F 30.4 °F 69% 30.13 in - North - - N/A   Unknown
6:00 AM 39.6 °F 28.9 °F 66% 30.12 in - North - - N/A   Unknown
7:00 AM 39 °F 28 °F 55% 30.11 in - Calm Calm - -  
7:00 AM 38.7 °F 28.4 °F 67% 30.11 in - North - - N/A   Unknown
8:00 AM 38.1 °F 27.9 °F 67% 30.13 in - North - - N/A   Unknown
9:00 AM 37.9 °F 27.7 °F 67% 30.13 in - North - - N/A   Unknown
10:00 AM 37.9 °F 28.2 °F 68% 30.12 in - North - - N/A   Unknown
11:00 AM 38.1 °F 29.3 °F 71% 30.12 in - North - - N/A   Unknown
12:00 PM 38.8 °F 28.6 °F 67% 30.10 in - North - - N/A   Unknown
1:00 PM 39 °F 29 °F 56% 30.07 in - Calm Calm - -  
1:00 PM 39.4 °F 28.8 °F 66% 30.07 in - North - - N/A   Unknown
2:00 PM 40.1 °F 30.2 °F 68% 30.05 in - North - - N/A   Unknown
3:00 PM 40.5 °F 28.9 °F 64% 30.03 in - North - - N/A   Unknown
4:00 PM 40.8 °F 28.0 °F 60% 30.01 in - North - - N/A   Unknown
5:00 PM 41.4 °F 29.8 °F 64% 30.01 in - North - - N/A   Unknown
6:00 PM 41.4 °F 31.1 °F 67% 30.02 in - North - - N/A   Unknown
7:00 PM 42 °F 33 °F 61% 30.01 in - Calm Calm - -  
7:00 PM 42.3 °F 33.1 °F 70% 30.01 in - North - - N/A   Unknown
8:00 PM 42.1 °F 31.8 °F 67% 30.02 in - North - - N/A   Unknown
9:00 PM 43.2 °F 33.8 °F 70% 30.01 in - North - - N/A   Unknown
10:00 PM 43.9 °F 34.5 °F 70% 30.00 in - North - - N/A   Unknown
11:00 PM 43.9 °F 34.2 °F 69% 29.99 in - North - - N/A   Unknown